F4DOU-5 Weather Reports


Display with metric or nautical units.
time (UTC)temp
F
wind
direction
speed
MPH
gust
MPH
rain 1hr
in
rain 24hr
in
rain mn
in
humidity
%
barometer
mb
20260505180005 63 217 5.0 10.0 0.00 1.21 0.50 76 1010.2
20260505175005 63 207 5.0 12.0 0.00 1.22 0.50 75 1010.1
20260505174005 63 211 6.0 12.0 0.00 1.22 0.50 74 1010.1
20260505173005 64 210 6.0 12.0 0.00 1.24 0.50 74 1010.0
20260505172006 64 209 6.0 14.0 0.00 1.24 0.50 72 1009.9
20260505171005 64 204 7.0 12.0 0.00 1.25 0.50 70 1009.9
20260505170005 65 207 6.0 15.0 0.00 1.25 0.50 70 1009.9
20260505165005 65 199 7.0 18.0 0.00 1.25 0.50 69 1010.0
20260505164008 65 187 10.0 20.0 0.00 1.25 0.50 69 1010.0
20260505162005 66 191 7.0 17.0 0.00 1.26 0.50 66 1010.1
20260505161005 66 210 7.0 23.0 0.00 1.26 0.50 66 1010.1
20260505151005 69 195 9.0 17.0 0.00 1.27 0.50 59 1009.8
20260505125005 71 198 6.0 17.0 0.00 1.30 0.50 63 1010.1
20260505124004 70 175 7.0 12.0 0.00 1.31 0.50 66 1010.2
20260505123006 69 179 7.0 15.0 0.00 1.33 0.50 66 1010.2
20260505122004 69 185 5.0 14.0 0.00 1.35 0.50 71 1010.2
20260505121004 69 178 6.0 12.0 0.00 1.37 0.50 69 1010.4
20260505120005 68 150 5.0 12.0 0.00 1.40 0.50 70 1010.5
20260505115007 69 162 3.0 10.0 0.00 1.42 0.50 70 1010.5
20260505114004 68 121 4.0 8.0 0.00 1.43 0.50 70 1010.7
20260505113005 68 115 5.0 7.0 0.00 1.44 0.50 71 1010.8
20260505112004 67 135 2.0 9.0 0.00 1.46 0.50 74 1011.1
20260505111004 67 175 5.0 8.0 0.00 1.46 0.50 73 1011.2
20260505102004 68 284 1.0 6.0 0.00 1.52 0.50 71 1011.5
20260505101004 67 207 3.0 9.0 0.00 1.59 0.50 78 1011.5
20260505100006 66 176 3.0 9.0 0.00 1.64 0.50 77 1011.5
20260505094006 65 189 3.0 8.0 0.00 1.72 0.50 82 1011.5
20260505093006 65 192 3.0 8.0 0.00 1.74 0.50 83 1011.4
20260505092006 64 215 2.0 5.0 0.00 1.74 0.50 85 1011.2
20260505091006 63 201 2.0 7.0 0.00 1.76 0.50 88 1011.1
20260505090005 62 186 2.0 5.0 0.00 1.76 0.50 92 1011.2
20260505085006 61 255 1.0 5.0 0.00 1.77 0.50 95 1011.0
20260505084006 60 176 2.0 5.0 0.00 1.77 0.50 96 1011.0
20260505083006 60 195 2.0 5.0 0.00 1.78 0.50 97 1011.1
20260505082006 59 120 1.0 3.0 0.00 1.78 0.50 98 1011.2
20260505081006 58 150 1.0 6.0 0.00 1.80 0.50 98 1011.2
20260505080006 58 177 3.0 5.0 0.00 1.80 0.50 98 1011.3
20260505074007 58 275 0.0 2.0 0.00 1.85 0.50 97 1011.1
20260505073006 57 275 1.0 3.0 0.00 1.87 0.50 98 1011.0
20260505072006 57 346 1.0 5.0 0.00 1.95 0.50 98 1010.9
20260505071006 57 24 3.0 7.0 0.00 2.05 0.50 98 1010.7
20260505070006 57 327 2.0 6.0 0.03 2.09 0.50 98 1010.6
20260505065006 57 9 2.0 9.0 0.13 2.13 0.50 98 1010.4
20260505064004 56 31 5.0 9.0 0.15 2.17 0.50 98 1010.0
20260505062004 56 326 2.0 5.0 0.15 2.19 0.50 97 1009.9
20260505061006 56 4 2.0 6.0 0.15 2.20 0.50 97 1009.9
20260505060006 56 339 4.0 10.0 0.12 2.18 0.46 97 1009.7
20260505055006 56 325 5.0 8.0 0.05 2.17 0.36 97 1009.8
20260505054005 56 12 3.0 7.0 0.03 2.25 0.35 97 1009.6
20260505052006 56 25 0.0 0.0 0.03 2.30 0.35 97 1009.6
20260505041006 56 44 2.0 5.0 0.00 2.35 0.31 97 1009.6
20260505040006 56 32 1.0 3.0 0.00 2.35 0.31 97 1009.6
20260505035006 56 0 1.0 3.0 0.01 2.35 0.31 97 1009.8
20260505034006 56 0 1.0 3.0 0.01 2.35 0.31 97 1009.8
20260505033006 56 0 1.0 3.0 0.01 2.35 0.31 97 1009.9
20260505031006 56 32 1.0 3.0 0.02 2.35 0.31 97 1010.1
20260505030006 56 45 2.0 3.0 0.02 2.35 0.31 97 1010.1
20260505025007 56 98 0.0 1.0 0.02 2.35 0.31 97 1010.2
20260505024006 56 98 0.0 2.0 0.02 2.35 0.31 97 1010.3
20260505023006 56 20 1.0 3.0 0.02 2.35 0.31 97 1010.3
20260505022006 56 20 0.0 1.0 0.01 2.34 0.30 97 1010.4
20260505021007 56 20 0.0 1.0 0.00 2.33 0.29 97 1010.4
20260505020006 56 20 0.0 3.0 0.01 2.33 0.29 97 1010.4
20260505015006 56 20 1.0 3.0 0.01 2.33 0.29 97 1010.4
20260505014006 56 312 0.0 2.0 0.01 2.33 0.29 97 1010.5
20260505012006 56 29 0.0 3.0 0.02 2.33 0.29 97 1010.7
20260505011006 56 66 0.0 5.0 0.06 2.33 0.29 97 1010.7
20260505010005 56 29 2.0 5.0 0.07 2.32 0.28 97 1010.7
20260505005005 56 355 1.0 2.0 0.09 2.32 0.28 97 1010.7
20260505004006 55 355 1.0 2.0 0.12 2.32 0.28 97 1010.9
20260505002006 55 212 1.0 2.0 0.12 2.31 0.27 97 1011.2
20260505001005 55 155 0.0 0.0 0.09 2.28 0.24 96 1011.2
20260505000006 55 155 0.0 2.0 0.07 2.25 0.21 96 1011.2
20260504235006 55 155 1.0 1.0 0.06 2.24 0.20 96 1011.3
20260504234006 55 155 0.0 1.0 0.07 2.20 0.17 96 1011.5
20260504233006 55 155 0.0 2.0 0.08 2.20 0.17 96 1011.5
20260504231005 55 91 3.0 9.0 0.13 2.19 0.15 96 1011.5
20260504225005 55 270 0.0 0.0 0.17 2.17 0.13 96 1011.7
20260504224004 55 8 0.0 3.0 0.16 2.13 0.09 96 1011.6
20260504222006 55 103 1.0 6.0 0.13 2.09 0.05 96 1011.7
20260504221005 55 48 3.0 9.0 0.11 2.06 0.02 96 1011.8
20260504220007 55 55 1.0 7.0 0.13 2.04 0.00 96 1011.9
20260504215006 55 61 1.0 3.0 0.13 2.00 2.00 96 1011.9
20260504213006 55 135 1.0 9.0 0.24 1.96 1.96 96 1012.1
20260504210006 55 127 6.0 15.0 0.29 1.91 1.91 96 1012.5
20260504205006 55 105 4.0 12.0 0.31 1.87 1.87 96 1012.6
20260504204005 56 117 5.0 10.0 0.33 1.82 1.82 96 1012.9
20260504203006 56 129 2.0 8.0 0.31 1.72 1.72 96 1012.9
20260504201006 55 93 3.0 7.0 0.30 1.65 1.65 96 1012.8
20260504200005 56 82 3.0 8.0 0.29 1.62 1.62 96 1012.8
20260504194006 56 66 2.0 6.0 0.17 1.49 1.49 96 1012.8
20260504193006 56 56 2.0 8.0 0.09 1.42 1.42 96 1012.8
20260504192005 56 86 3.0 8.0 0.06 1.39 1.39 96 1012.7
20260504191006 56 98 2.0 10.0 0.03 1.35 1.35 96 1012.7
20260504190006 56 99 3.0 10.0 0.01 1.33 1.33 96 1012.5
20260504185006 56 89 2.0 7.0 0.01 1.32 1.32 96 1012.4
20260504183006 56 46 3.0 5.0 0.02 1.32 1.32 97 1012.4
20260504182006 57 66 2.0 5.0 0.03 1.32 1.32 97 1012.5
20260504181006 57 18 1.0 6.0 0.04 1.32 1.32 97 1012.6